Regional Weather Roundup
Issued by NWS

Home | Current Version | Previous Version | Text Only | Print | Product List | Glossary Off
Versions: 1 2 3 4 5 6 7 8 9 10 11 12 13 14 15 16 17 18 19 20 21 22 23 24 25 26 27 28 29 30 31 32 33 34 35 36 37 38 39 40 41 42 43 44 45 46 47 48 49 50

724
ASUS43 KMPX 160110
RWRMN
WEATHER ROUNDUP FOR MINNESOTA
NATIONAL WEATHER SERVICE TWIN CITIES/CHANHASSEN MN
700 PM CST MON JAN 15 2018


NOTE: "FAIR" INDICATES FEW OR NO CLOUDS BELOW 12,000 FEET WITH NO
SIGNIFICANT WEATHER AND/OR OBSTRUCTIONS TO VISIBILITY. N/A MEANS
CURRENT SKY AND/OR WEATHER CONDITIONS ARE NOT AVAILABLE.

MNZ060>063-068>070-160200-
   Twin Cities Metro

CITY           SKY/WX    TMP DP  RH WIND       PRES   REMARKS
TWIN CITIES    FLURRIES   2  -4  76 NW12      30.52R WCI -15
ST PAUL        CLOUDY     5  -3  69 NW14      30.53R WCI -12
CRYSTAL        LGT SNOW   3  -6  66 NW13      30.52R WCI -14
BLAINE         LGT SNOW   7   0  72 NW15G22   30.51R WCI -11
LAKEVILLE      FLURRIES   1  -6  71 NW10G17   30.49S WCI -14
EDEN PRAIRIE   CLOUDY     3  -6  66 NW14G23   30.51R WCI -15
SOUTH ST PAUL  CLOUDY     5  -3  69 NW9       30.51R WCI  -9
LAKE ELMO      FLURRIES   5   0  78 NW8       30.49R WCI  -8
$$
MNZ001>005-007-008-013>017-022>024-027-028-160200-
   Northwest Minnesota

CITY           SKY/WX    TMP DP  RH WIND       PRES   REMARKS
BEMIDJI        CLOUDY    -3  -8  79 N14       30.64R WCI -22
HALLOCK        FAIR     -11 -17  77 N20       30.83S WCI -36
ROSEAU         FAIR      -8 -13  77 NW12      30.76S WCI -27
WARROAD        FAIR      -8 -15  71 NW8       30.75R WCI -23
THIEF RVR FALL FAIR     -13 -19  75 N12       30.76R WCI -33
CROOKSTON      CLOUDY    -9 -15  77 N18       30.80S FOG     WCI -33
FOSSTON        CLOUDY   -11 -18  70 N14       30.71R WCI -33
DETROIT LAKES  CLOUDY   -13 -18  77 NW17      30.67R HAZE    WCI -38
MOORHEAD       CLOUDY   -11 -17  77 N16       30.79R HAZE    WCI -34
PARK RAPIDS    CLOUDY    -6 -13  71 N13       30.60R WCI -25
MAHNOMEN       CLOUDY   -13 -18  77 NW12      30.71R WCI -33
$$
MNZ006-009>011-018-025>026-160200-
   North Central Minnesota

CITY           SKY/WX    TMP DP  RH WIND       PRES   REMARKS
BAUDETTE       CLOUDY    -4  -9  79 NW13      30.68R WCI -23
FLAG ISLAND    FAIR      -6 -11  77 N14       30.74R WCI -26
INTL FALLS     CLOUDY     0  -7  72 N7        30.65R WCI -13
WASKISH        CLOUDY    -2  -8  78 N6        30.68R WCI -14
BIG FORK       CLOUDY     1  -4  78 N8G21     30.60R WCI -12
LONGVILLE      CLOUDY    -4  -9  77 NW6       30.59R WCI -16
GRAND RAPIDS   CLOUDY     1  -4  79 N16       30.57R WCI -19
CRANE LAKE     CLOUDY     1  -2  85 N6        30.64R WCI -10
ORR            CLOUDY     1  -6  71 NW3       30.57R
COOK           CLOUDY     1  -2  85 N7        30.58R WCI -11
WALKER         CLOUDY    -4 -10  77 N9G16     30.62R WCI -20
$$
MNZ012-019>021-037-160200-
   Northeast Minnesota

CITY           SKY/WX    TMP DP  RH WIND       PRES   REMARKS
DULUTH         LGT SNOW   6   2  83 N17       30.44R BLWGSNOWWCI -13
ELY            FLURRIES   3   0  85 N5        30.53R WCI  -6
HIBBING        CLOUDY     1  -4  79 N14       30.53R WCI -17
EVELETH        FAIR       2  -4  75 N5        30.53R WCI  -7
DULUTH HARBOR  FLURRIES  14   9  79 NW12      30.52R WCI   0
TWO HARBORS    FAIR      12   5  73 N9G22     30.44R WCI   0
SILVER BAY     FAIR      10   7  85 N8        30.44R WCI  -1
GRAND MARAIS     N/A     18  11  74 N13G24    30.48R WCI   5
G MARAIS ARPRT FLURRIES  10   5  79 N13       30.42R WCI  -5
$$
MNZ029>031-032-039>041-046>048-054>057-064-160200-
   West Central Minnesota

CITY           SKY/WX    TMP DP  RH WIND       PRES   REMARKS
FERGUS FALLS   CLOUDY   -13 -18  77 N17G24    30.74S WCI -38
WHEATON        CLOUDY   -11 -18  70 NW20G26   30.75R WCI -36
MORRIS         CLOUDY   -11 -18  70 NW22G30   30.65S HAZE    WCI -38
ALEXANDRIA     MOCLDY   -10 -16  74 NW16G24   30.59R WCI -33
ELBOW LAKE     FAIR     -13 -19  76 NW15G25   30.67R HAZE    WCI -36
WADENA         MOCLDY    -9 -17  70 NW7       30.61R WCI -24
GLENWOOD       FAIR      -9 -17  70 NW15G22   30.59R WCI -31
APPLETON       MOCLDY    -9 -17  70 NW17G24   30.69R WCI -33
ORTONVILLE     PTCLDY   -11 -18  70 N21G26    30.68R WCI -37
MADISON        PTCLDY    -8 -15  71 N22       30.69R HAZE    WCI -33
WILLMAR        FAIR      -9 -17  70 NW16G22   30.61S WCI -32
$$
MNZ033>034-036-042>043-049>051-058-059-160200-
   Central Minnesota

CITY           SKY/WX    TMP DP  RH WIND       PRES   REMARKS
ST CLOUD       MOCLDY    -1  -8  72 N12       30.55R WCI -18
SAUK CENTRE      N/A     -8 -15  71 NW12      30.58R WCI -27
PAYNESVILLE    FAIR      -6 -13  73 NW12      30.58R WCI -25
AITKIN         FAIR       0  -6  78 N13       30.54R WCI -18
PINE RIVER     CLOUDY    -4  -9  77 N13       30.60R WCI -23
BRAINERD       CLOUDY    -2 -10  69 N15       30.57R WCI -22
STAPLES        FAIR      -8 -15  71 N9        30.59R WCI -25
LONG PRAIRIE   MOCLDY    -6 -13  71 W14       30.57R WCI -26
LITTLE FALLS   MOCLDY     0 -11  60 N13G18    30.57R WCI -18
LITCHFIELD     CLOUDY    -2  -9  71 NW14G22   30.57R WCI -21
BUFFALO        CLOUDY     2  -6  69 NW12G18   30.55R WCI -14
MAPLE LAKE     CLOUDY     3  -4  72 MISG      30.56R
HUTCHINSON     CLOUDY    -3 -10  72 NW17      30.56R WCI -24
$$
MNZ037-044-045-052-053-160200-
   East Central Minnesota

CITY           SKY/WX    TMP DP  RH WIND       PRES   REMARKS
PRINCETON      FAIR       0  -8  71 NW7       30.53R WCI -13
MORA           FAIR       5  -2  72 N8G17     30.52R WCI  -8
CAMBRIDGE      FLURRIES   5  -4  66 NW9       30.52R WCI  -9
RUSH CITY      CLOUDY     5  -2  74 NW8       30.50R WCI  -9
MOOSE LAKE     FLURRIES   5   0  78 N9        30.49R WCI  -9
HINCKLEY       FAIR       7   1  78 N13G23    30.49R WCI  -9
CLOQUET        LGT SNOW   5   0  78 NW15G23   30.47R WCI -13
MCGREGOR       FAIR       3   0  85 N13       30.53R WCI -14
$$
MNZ071>073-080-081-089-090-097-098-160200-
   Southwest Minnesota

CITY           SKY/WX    TMP DP  RH WIND       PRES   REMARKS
MONTEVIDEO     CLOUDY    -9 -17  70 N21G26    30.66R HAZE    WCI -35
GRANITE FALLS  MOCLDY    -8 -14  74 NW18G26   30.67R WCI -32
CANBY          CLEAR     -7 -13  74 NW18      30.67R WCI -30
MARSHALL       CLOUDY    -9 -15  75 N23       30.63R HAZE    WCI -35
REDWOOD FALLS  CLOUDY   -10 -16  74 NW17G25   30.61R WCI -34
OLIVIA         PTCLDY    -8 -15  71 NW18G30   30.60R WCI -31
PIPESTONE      PTCLDY    -8 -15  71 N17G29    30.56R WCI -31
WORTHINGTON    MOCLDY    -9 -14  78 NW20      30.56R WCI -34
JACKSON        CLOUDY    -9 -17  70 NW20G28   30.54R WCI -34
SLAYTON        CLEAR    -10 -15  76 NW17G24   30.56R WCI -33
$$
MNZ065>067-074>077-082>085-091>093-160200-
   South Central Minnesota

CITY           SKY/WX    TMP DP  RH WIND       PRES   REMARKS
MANKATO        FLURRIES  -6 -12  75 NW17      30.54R WCI -28
NEW ULM        PTCLDY    -9 -17  70 NW18      30.58R WCI -33
ST JAMES       MOCLDY    -9 -15  77 NW16G24   30.59R WCI -32
FAIRMONT       CLEAR     -9 -14  78 NW23      30.55  WCI -35
GLENCOE        CLOUDY     0  -8  71 NW14      30.55R WCI -19
FARIBAULT      LGT SNOW   0  -6  78 W8        30.49R WCI -15
OWATONNA       FLURRIES   0  -6  78 NW17      30.47S WCI -21
WASECA         CLOUDY    -2  -8  78 NW17      30.52R HAZE    WCI -24
ALBERT LEA     CLOUDY    -6 -11  77 NW12G17   30.47R HAZE    WCI -24
$$
MNZ078>079-086>088-094>096-160200-
   Southeast Minnesota

CITY           SKY/WX    TMP DP  RH WIND       PRES   REMARKS
ROCHESTER      LGT SNOW   0  -4  83 NW18      30.41R FOG     WCI -21
RED WING       FLURRIES   7  -4  61 NW7       30.47R WCI  -5
STANTON        FLURRIES   3  -4  72 NW9       30.49R WCI -11
DODGE CENTER   FLURRIES   0  -6  78 NW14G20   30.43R WCI -19
WINONA         CLOUDY    10   5  79 NW15G23     N/A  WCI  -6
PRESTON        FAIR      -1  -6  76 NW10      30.40R WCI -17
$$
ABBREVIATIONS USED IN REMARKS
   TC - TEMPERATURES IN CELSIUS
  WCI - WIND CHILL INDEX
   HX - HEAT INDEX
  VSB - VISIBILITY
$$




USA.gov is the U.S. government's official web portal to all federal, state and local government web resources and services.